Location: Carnetin
(48.9010°N, 2.7059°E)
Time: 05:08:04
(UTC+00:00)

USA 229 - Pass Details

Date: 03 June 2022
Orbit: 938 x 1274 km, 63.4° (Epoch: 24 May)

Event Time Altitude Azimuth Distance (km) Brightness Sun altitude
Rises 00:35:17 0° 308° (NW) 4,037 7.1 -18.0°
Reaches altitude 10° 00:39:11 10° 288° (WNW) 3,132 6.2 -17.9°
Maximum altitude 00:43:21 16° 254° (WSW) 2,755 5.6 -17.7°
Enters shadow 00:45:30 14° 236° (SW) 2,893 5.5 -17.6°
